Regional Weather Roundup
Issued by NWS

Home | Current Version | Previous Version | Text Only | Print | Product List | Glossary Off
Versions: 1 2 3 4 5 6 7 8 9 10 11 12 13 14 15 16 17 18 19 20 21 22 23 24 25 26 27 28 29 30 31 32 33 34 35 36 37 38 39 40 41 42 43 44 45 46 47 48 49 50

000
ASUS43 KMPX 250501
RWRMN
WEATHER ROUNDUP FOR MINNESOTA
NATIONAL WEATHER SERVICE TWIN CITIES/CHANHASSEN MN
1100 PM CST SAT JAN 24 2015


NOTE: "FAIR" INDICATES FEW OR NO CLOUDS BELOW 12,000 FEET WITH NO
SIGNIFICANT WEATHER AND/OR OBSTRUCTIONS TO VISIBILITY. N/A MEANS
CURRENT SKY AND/OR WEATHER CONDITIONS ARE NOT AVAILABLE.

MNZ060>063-068>070-250600-
   Twin Cities Metro

CITY           SKY/WX    TMP DP  RH WIND       PRES   REMARKS
TWIN CITIES    CLOUDY    36  30  79 NE10      29.64R
ST PAUL        CLOUDY    35  31  85 NE9G26    29.67R WCI  28
CRYSTAL        MIX PCPN  36  31  82 NE8       29.65R
BLAINE         DRIZZLE   36  34  93 NE7       29.66R
LAKEVILLE      CLOUDY    32  30  93 NE3       29.63R
EDEN PRAIRIE   CLOUDY    36  31  82 NE6       29.63R
SOUTH ST PAUL  CLOUDY    36  31  82 NE3       29.65R
LAKE ELMO      MIX PCPN  34  32  93 NE6       29.66R WCI  29
$$
MNZ001>005-007-008-013>017-022>024-027-028-250600-
   Northwest Minnesota

CITY           SKY/WX    TMP DP  RH WIND       PRES   REMARKS
BEMIDJI        CLOUDY    20  11  68 NE8       29.77S WCI  11
HALLOCK        CLOUDY    19  10  68 NE7       29.89R WCI  10
ROSEAU         CLOUDY    16   9  73 E15       29.87R WCI   1
WARROAD        CLOUDY    12   7  79 NE15      29.88S WCI  -4
THIEF RVR FALL CLOUDY    18  10  73 NE9       29.83R WCI   6
CROOKSTON      CLOUDY    21  16  79 NE9       29.85R WCI  11
FOSSTON        CLOUDY    19  12  73 NE8       29.79R WCI   9
DETROIT LAKES  CLOUDY    32  30  93 NE6       29.74R WCI  26
MOORHEAD       CLOUDY    30  28  93 N10       29.79R WCI  21
PARK RAPIDS    CLOUDY    29  22  75 NE9       29.73R WCI  20
MAHNOMEN       CLOUDY    27  22  80 NE8       29.75R WCI  19
$$
MNZ006-009>011-018-025>026-250600-
   North Central Minnesota

CITY           SKY/WX    TMP DP  RH WIND       PRES   REMARKS
BAUDETTE       CLOUDY    12   4  70 E10       29.86R WCI  -1
FLAG ISLAND    MOCLDY    10   1  67 E7        29.90R WCI   0
INTL FALLS     CLOUDY     8   0  69 NE8       29.88R WCI  -4
WASKISH        CLOUDY    14   9  79 NE8       29.84R WCI   3
BIG FORK       FAIR      14   7  73 NE6       29.82R WCI   5
LONGVILLE      CLOUDY    27  19  74 N6        29.76R WCI  20
GRAND RAPIDS   CLOUDY    23  14  68 NE7       29.77R WCI  15
CRANE LAKE     PTCLDY     7   1  78 CALM      29.90R
ORR            PTCLDY     9   1  72 CALM      29.82R
COOK           CLOUDY    12   5  73 NE8       29.83R WCI   1
WALKER         CLOUDY    25  18  72 NE7       29.76R WCI  18
$$
MNZ012-019>021-037-250600-
   Northeast Minnesota

CITY           SKY/WX    TMP DP  RH WIND       PRES   REMARKS
DULUTH         FLURRIES  22  15  75 E17       29.78R WCI   8
ELY            PTCLDY     7   1  78 NE3       29.85R
HIBBING        CLOUDY    22  13  68 NE7       29.79R WCI  13
EVELETH        CLOUDY    21  12  68 NE7       29.81R WCI  13
DULUTH HARBOR  CLOUDY    27  19  74 E26       29.84R WCI  11
TWO HARBORS    CLOUDY    25  18  74 E13       29.81R WCI  13
SILVER BAY     CLOUDY    19  12  73 NE7       29.83R WCI  10
GRAND MARAIS     N/A     10  -3  55 N5        29.93R WCI   2
G MARAIS ARPRT MOCLDY     1  -8  66 N5        29.81R WCI  -8
$$
MNZ029>031-032-039>041-046>048-054>057-064-250600-
   West Central Minnesota

CITY           SKY/WX    TMP DP  RH WIND       PRES   REMARKS
FERGUS FALLS   RAIN      32  32 100 NE5       29.76R WCI  27
WHEATON        LGT SNOW  30  30 100 N10       29.75R WCI  21
MORRIS         LGT SNOW  34  32  93 N10       29.70R VSB 1   WCI  26
ALEXANDRIA     LGT SNOW  33  31  92 NE13      29.70R FOG     WCI  24
ELBOW LAKE     LGT SNOW  32  31  98 NE9       29.71R WCI  24
WADENA         CLOUDY    30  27  86 NE9       29.72R WCI  22
GLENWOOD       LGT SNOW  32  32 100 N12       29.69R WCI  23
APPLETON       LGT SNOW  34  32  93 N12       29.69R WCI  25
BENSON         LGT SNOW  34  32  93 NE7       29.68R WCI  28
ORTONVILLE     LGT SNOW  32  30  93 N14       29.71R WCI  22
MADISON        LGT SNOW  36  36 100 N14       29.68R
WILLMAR        LGT SNOW  34  32  93 NE8       29.67R WCI  27
$$
MNZ033>034-036-042>043-049>051-058-059-250600-
   Central Minnesota

CITY           SKY/WX    TMP DP  RH WIND       PRES   REMARKS
ST CLOUD       CLOUDY    34  31  88 NE6       29.68R WCI  29
SAUK CENTRE    FLURRIES  32  32  99 NE7       29.69R WCI  26
PAYNESVILLE    LGT SNOW  31  31 100 N8        29.67R WCI  23
AITKIN         CLOUDY    30  23  74 E10       29.74R WCI  21
PINE RIVER     CLOUDY    28  23  80 N12       29.78R WCI  18
BRAINERD       CLOUDY    32  27  81 E13       29.73R WCI  22
STAPLES        CLOUDY    32  28  86 NE8       29.71R WCI  25
LONG PRAIRIE   FLURRIES  32  32 100 N6        29.69R WCI  26
LITTLE FALLS   CLOUDY    34  28  80 NE9       29.70R WCI  26
LITCHFIELD     RAIN      36  36 100 NE8       29.66R
BUFFALO        LGT RAIN  34  31  90 NE9       29.67R WCI  26
MAPLE LAKE     RAIN      35  33  92 NE8       29.67R WCI  28
$$
MNZ037-044-045-052-053-250600-
   East Central Minnesota

CITY           SKY/WX    TMP DP  RH WIND       PRES   REMARKS
PRINCETON      CLOUDY    36  30  80 NE10G21   29.69R
MORA           CLOUDY    32  27  80 NE10G16   29.73R WCI  24
CAMBRIDGE      CLOUDY    34  25  69 NE9G17    29.68R WCI  26
RUSH CITY      CLOUDY    29  25  82 NE16G24   29.72R WCI  18
MOOSE LAKE     CLOUDY    27  21  80 E10G21    29.75R WCI  17
HINCKLEY       CLOUDY    30  27  86 NE8       29.74R WCI  23
CLOQUET        CLOUDY    23  18  80 E14G23    29.77R WCI  11
MCGREGOR       CLOUDY    27  21  80 E12G20    29.76R WCI  16
$$
MNZ071>073-080-081-089-090-097-098-250600-
   Southwest Minnesota

CITY           SKY/WX    TMP DP  RH WIND       PRES   REMARKS
MONTEVIDEO     LGT SNOW  32  32 100 NE12      29.67R WCI  23
GRANITE FALLS  FLURRIES  32  32  98 N9        29.66R WCI  25
CANBY          LGT SNOW  32  32  99 N10       29.68R WCI  24
MARSHALL       CLOUDY    32  28  86 N13       29.66R WCI  22
REDWOOD FALLS  CLOUDY    35  32  88 N7        29.62R WCI  29
OLIVIA         DRIZZLE   32  32 100 N12       29.63R WCI  23
PIPESTONE      LGT SNOW  34  32  93 N10G20    29.60R WCI  26
WINDOM         LGT SNOW  34  34 100 N8        29.60R WCI  27
WORTHINGTON    CLOUDY    32  30  93 N9        29.60R WCI  24
JACKSON        LGT SNOW  34  32  93 N9        29.59R WCI  26
TRACY          LGT SNOW  33  32  98 N9        29.63R WCI  25
SLAYTON        LGT SNOW  32  32  99 N15       29.61R WCI  22
$$
MNZ065>067-074>077-082>085-091>093-250600-
   South Central Minnesota

CITY           SKY/WX    TMP DP  RH WIND       PRES   REMARKS
MANKATO        CLOUDY    34  30  86 NW6       29.61R WCI  29
NEW ULM        CLOUDY    34  32  93 NE6       29.61S WCI  29
ST JAMES       FLURRIES  36  34  93 N6        29.61S
FAIRMONT       CLOUDY    34  28  80 N6        29.58S WCI  29
GLENCOE        CLOUDY    35  34  96 N5        29.63R WCI  31
FARIBAULT      CLOUDY    34  32  93 N5        29.61R WCI  30
OWATONNA       CLOUDY    34  32  93 CALM      29.60R
WASECA         CLOUDY    36  32  87 CALM      29.61R
ALBERT LEA     CLOUDY    34  34 100 CALM      29.58R
$$
MNZ078>079-086>088-094>096-250600-
   Southeast Minnesota

CITY           SKY/WX    TMP DP  RH WIND       PRES   REMARKS
ROCHESTER      CLOUDY    34  30  85 NE9       29.59S WCI  27
RED WING       CLOUDY    36  30  80 E8        29.63R
STANTON        CLOUDY    35  31  88 NE5       29.61R WCI  31
DODGE CENTER   CLOUDY    34  34 100 NE6       29.59R FOG     WCI  29
WINONA         CLOUDY    32  30  93 CALM      29.64R
AUSTIN         CLOUDY    34  32  93 NE5       29.58R WCI  30
PRESTON        CLOUDY    32  31  95 E6        29.59S WCI  26
$$
ABBREVIATIONS USED IN REMARKS
   TC - TEMPERATURES IN CELSIUS
  WCI - WIND CHILL INDEX
   HX - HEAT INDEX
  VSB - VISIBILITY
$$



USA.gov is the U.S. government's official web portal to all federal, state and local government web resources and services.